Morris, MN

6:17 PM CST on January 18, 2018 (GMT -0600)
Morris Municipal

Weather History for KMOX - December, 2012

Change the Weather History Date:

Saturday, December 1, 2012

  Actual Average Record
Temperature  
Mean Temperature 38 °F -  
Max Temperature 48 °F 30 °F 59 °F (1998)
Min Temperature 28 °F 15 °F -11 °F (2014)
Degree Days  
Heating Degree Days 27    
Moisture  
Dew Point 32 °F    
Average Humidity 81    
Maximum Humidity 93    
Minimum Humidity 58    
Precipitation  
Precipitation 0.00 in - - ()
Sea Level Pressure  
Sea Level Pressure 29.76 in    
Wind  
Wind Speed 16 mph (SW)    
Max Wind Speed 28 mph    
Max Gust Speed 33 mph    
Visibility 6 miles    
Events      
Averages and records for this station are not official NWS values.
T = Trace of Precipitation, MM = Missing Value Source: NWS Daily Summary

Daily Weather History Graph

Daily Weather History Graph

Search for Another Location

Airport or City:

Trip Planner

Search our weather history database for the weather conditions in past years. The results will help you decide how hot, cold, wet, or windy it might be!

Date:

Astronomy

Dec. 01, 2012 Rise Set
Actual Time 7:44 AM CST 4:41 PM CST
Civil Twilight 7:10 AM CST 5:15 PM CST
Nautical Twilight 6:33 AM CST 5:52 PM CST
Astronomical Twilight 5:58 AM CST 6:28 PM CST
Moon 7:35 PM CST (12/1) 9:56 AM CST (12/1)
Length of Visible Light 10h 04m
Length of Day
8h 57m
Waning Gibbous, 91% of the Moon is Illuminated
Dec 1
Waning Gibbous
Dec 6
Last Quarter
Dec 13
New
Dec 19
First Quarter
Dec 28
Full

Hourly Weather History & Observations

Time (CST) Temp. Windchill Dew Point Humidity Pressure Visibility Wind Dir Wind Speed Gust Speed Precip Events Conditions
12:13 AM 33.8 °F 21.0 °F 32.0 °F 93% 29.87 in 3.0 mi SSE 25.3 mph 32.2 mph N/A   Overcast
12:34 AM 33.8 °F 21.9 °F 32.0 °F 93% 29.87 in 3.0 mi SSE 21.9 mph 31.1 mph N/A   Mostly Cloudy
12:53 AM 33.8 °F 21.6 °F 32.0 °F 93% 29.85 in 3.0 mi SSE 23.0 mph 29.9 mph N/A   Mostly Cloudy
1:14 AM 35.6 °F 24.5 °F 32.0 °F 87% 29.84 in 3.0 mi SE 20.7 mph 28.8 mph N/A   Overcast
1:33 AM 35.6 °F 24.2 °F 32.0 °F 87% 29.84 in 3.0 mi SSE 21.9 mph - N/A   Mostly Cloudy
1:54 AM 35.6 °F 23.7 °F 32.0 °F 87% 29.83 in 3.0 mi SSE 24.2 mph 28.8 mph N/A   Overcast
2:13 AM 35.6 °F 23.7 °F 32.0 °F 87% 29.81 in 3.0 mi SE 24.2 mph 29.9 mph N/A   Mostly Cloudy
2:34 AM 35.6 °F 24.2 °F 33.8 °F 93% 29.81 in 3.0 mi SSE 21.9 mph 32.2 mph N/A   Scattered Clouds
2:53 AM 35.6 °F 24.8 °F 33.8 °F 93% 29.80 in 3.0 mi SSE 19.6 mph 31.1 mph N/A   Mostly Cloudy
3:14 AM 35.6 °F 23.7 °F 33.8 °F 93% 29.78 in 3.0 mi SSE 24.2 mph 31.1 mph N/A   Mostly Cloudy
3:34 AM 35.6 °F 23.7 °F 33.8 °F 93% 29.76 in 3.0 mi SE 24.2 mph 31.1 mph N/A   Mostly Cloudy
3:54 AM 35.6 °F 23.0 °F 33.8 °F 93% 29.73 in 3.0 mi SSE 27.6 mph 31.1 mph N/A   Mostly Cloudy
4:13 AM 35.6 °F 24.0 °F 33.8 °F 93% 29.73 in 2.5 mi SSE 23.0 mph 31.1 mph N/A   Mostly Cloudy
4:34 AM 35.6 °F 24.0 °F 33.8 °F 93% 29.70 in 3.0 mi SSE 23.0 mph 33.4 mph N/A   Mostly Cloudy
4:53 AM 35.6 °F 23.7 °F 33.8 °F 93% 29.70 in 3.0 mi SSE 24.2 mph 28.8 mph N/A   Scattered Clouds
5:14 AM 35.6 °F 24.8 °F 33.8 °F 93% 29.71 in 3.0 mi SSE 19.6 mph 24.2 mph N/A   Scattered Clouds
5:34 AM 35.6 °F 25.2 °F 33.8 °F 93% 29.72 in 3.0 mi SSE 18.4 mph - N/A   Clear
5:53 AM 35.6 °F 25.9 °F 33.8 °F 93% 29.72 in 3.0 mi SSE 16.1 mph 21.9 mph N/A   Clear
6:14 AM 35.6 °F 25.5 °F 33.8 °F 93% 29.70 in 3.0 mi SSE 17.3 mph - N/A   Clear
6:34 AM 35.6 °F 25.5 °F 33.8 °F 93% 29.69 in 4.0 mi SSE 17.3 mph - N/A   Clear
6:54 AM 35.6 °F 25.9 °F 33.8 °F 93% 29.70 in 4.0 mi SE 16.1 mph - N/A   Clear
7:13 AM 35.6 °F 26.2 °F 33.8 °F 93% 29.70 in 4.0 mi SSE 15.0 mph - N/A   Clear
7:34 AM 35.6 °F 27.5 °F 33.8 °F 93% 29.71 in 4.0 mi SSE 11.5 mph - N/A   Clear
7:53 AM 35.6 °F 27.5 °F 33.8 °F 93% 29.70 in 4.0 mi SSE 11.5 mph - N/A   Clear
8:14 AM 35.6 °F 28.0 °F 33.8 °F 93% 29.70 in 3.0 mi SSE 10.4 mph - N/A   Clear
8:34 AM 35.6 °F 28.0 °F 33.8 °F 93% 29.70 in 3.0 mi SSE 10.4 mph - N/A   Clear
8:54 AM 35.6 °F 28.0 °F 33.8 °F 93% 29.70 in 3.0 mi SSE 10.4 mph - N/A   Clear
9:14 AM 37.4 °F 30.3 °F 33.8 °F 87% 29.70 in 3.0 mi SSE 10.4 mph - N/A   Clear
9:33 AM 37.4 °F 29.8 °F 33.8 °F 87% 29.71 in 3.0 mi SSE 11.5 mph - N/A   Clear
9:53 AM 37.4 °F 30.8 °F 35.6 °F 93% 29.71 in 3.0 mi SSE 9.2 mph - N/A   Clear
10:13 AM 39.2 °F 32.5 °F 35.6 °F 87% 29.72 in 4.0 mi SSE 10.4 mph - N/A   Clear
10:34 AM 39.2 °F 33.0 °F 35.6 °F 87% 29.72 in 4.0 mi South 9.2 mph - N/A   Haze
10:53 AM 42.8 °F 38.0 °F 35.6 °F 76% 29.71 in 4.0 mi South 8.1 mph - N/A   Haze
11:14 AM 44.6 °F 40.2 °F 35.6 °F 71% 29.71 in 5.0 mi South 8.1 mph - N/A   Haze
11:33 AM 44.6 °F 40.7 °F 35.6 °F 71% 29.70 in 7.0 mi SSW 6.9 mph - N/A   Clear
11:54 AM 46.4 °F 43.5 °F 35.6 °F 66% 29.68 in 7.0 mi West 5.8 mph - N/A   Clear
12:13 PM 46.4 °F 44.3 °F 35.6 °F 66% 29.68 in 7.0 mi WSW 4.6 mph - N/A   Clear
12:33 PM 48.2 °F - 35.6 °F 62% 29.69 in 7.0 mi WNW 10.4 mph - N/A   Clear
12:54 PM 48.2 °F - 35.6 °F 62% 29.68 in 10.0 mi WNW 8.1 mph - N/A   Clear
1:13 PM 48.2 °F - 35.6 °F 62% 29.69 in 10.0 mi WNW 9.2 mph - N/A   Clear
1:34 PM 48.2 °F - 33.8 °F 58% 29.69 in 10.0 mi WNW 9.2 mph - N/A   Clear
1:53 PM 48.2 °F - 35.6 °F 62% 29.69 in 7.0 mi WNW 6.9 mph - N/A   Clear
2:14 PM 48.2 °F - 35.6 °F 62% 29.69 in 10.0 mi WNW 8.1 mph - N/A   Clear
2:33 PM 48.2 °F - 33.8 °F 58% 29.69 in 10.0 mi WNW 9.2 mph - N/A   Clear
2:54 PM 48.2 °F - 33.8 °F 58% 29.71 in 10.0 mi WNW 9.2 mph - N/A   Clear
3:14 PM 48.2 °F - 33.8 °F 58% 29.71 in 10.0 mi WNW 8.1 mph - N/A   Clear
3:33 PM 46.4 °F 42.4 °F 33.8 °F 62% 29.71 in 10.0 mi NW 8.1 mph - N/A   Clear
3:54 PM 46.4 °F 42.9 °F 33.8 °F 62% 29.73 in 10.0 mi NW 6.9 mph - N/A   Clear
4:13 PM 42.8 °F 38.0 °F 30.2 °F 61% 29.74 in 10.0 mi NW 8.1 mph - N/A   Clear
4:34 PM 42.8 °F 38.0 °F 30.2 °F 61% 29.75 in 7.0 mi NW 8.1 mph - N/A   Clear
4:53 PM 42.8 °F 38.6 °F 30.2 °F 61% 29.75 in 10.0 mi NW 6.9 mph - N/A   Clear
5:14 PM 39.2 °F 34.2 °F 30.2 °F 70% 29.76 in 10.0 mi NW 6.9 mph - N/A   Clear
5:33 PM 39.2 °F 34.2 °F 30.2 °F 70% 29.76 in 10.0 mi NW 6.9 mph - N/A   Clear
5:53 PM 37.4 °F 32.8 °F 30.2 °F 75% 29.77 in 7.0 mi WNW 5.8 mph - N/A   Clear
6:14 PM 37.4 °F 32.8 °F 30.2 °F 75% 29.77 in 10.0 mi WNW 5.8 mph - N/A   Clear
6:33 PM 37.4 °F 32.8 °F 30.2 °F 75% 29.79 in 10.0 mi WNW 5.8 mph - N/A   Scattered Clouds
6:54 PM 37.4 °F 34.9 °F 28.4 °F 70% 29.79 in 10.0 mi WNW 3.5 mph - N/A   Scattered Clouds
7:13 PM 35.6 °F 31.7 °F 28.4 °F 75% 29.79 in 7.0 mi WNW 4.6 mph - N/A   Scattered Clouds
7:54 PM 33.8 °F 26.4 °F 28.4 °F 81% 29.82 in 7.0 mi NW 9.2 mph - N/A   Clear
8:14 PM 33.8 °F 26.4 °F 28.4 °F 81% 29.81 in 7.0 mi NNW 9.2 mph - N/A   Clear
8:34 PM 33.8 °F 24.8 °F 28.4 °F 81% 29.83 in 7.0 mi NW 12.7 mph - N/A   Clear
8:53 PM 33.8 °F 26.4 °F 28.4 °F 81% 29.82 in 7.0 mi NNW 9.2 mph - N/A   Scattered Clouds
9:14 PM 33.8 °F 27.7 °F 28.4 °F 81% 29.82 in 7.0 mi NNW 6.9 mph - N/A   Scattered Clouds
9:33 PM 33.8 °F 26.4 °F 28.4 °F 81% 29.83 in 5.0 mi NNW 9.2 mph - N/A   Haze
9:54 PM 33.8 °F 26.4 °F 28.4 °F 81% 29.84 in 5.0 mi NNW 9.2 mph - N/A   Scattered Clouds
10:14 PM 32.0 °F 24.2 °F 28.4 °F 87% 29.85 in 5.0 mi NNW 9.2 mph - N/A   Clear
10:33 PM 30.2 °F 22.6 °F 28.4 °F 93% 29.85 in 5.0 mi NNW 8.1 mph - N/A   Clear
10:54 PM 30.2 °F 22.6 °F 26.6 °F 86% 29.85 in 4.0 mi NNW 8.1 mph - N/A   Clear
11:13 PM 30.2 °F 22.6 °F 26.6 °F 86% 29.85 in 4.0 mi NNW 8.1 mph - N/A   Clear
11:34 PM 28.4 °F 21.2 °F 26.6 °F 93% 29.86 in 3.0 mi NW 6.9 mph - N/A   Clear
11:53 PM 28.4 °F 21.2 °F 26.6 °F 93% 29.87 in 3.0 mi NNW 6.9 mph - N/A   Scattered Clouds